Location: ???????
(55.3754°N, 39.3545°E)
Time: 15:35:19
(UTC+00:00)

Meteor 2-3 Rocket - Pass Details

Date: 14 April 2026
Orbit: 845 x 880 km, 81.2° (Epoch: 17 May)

Event Time Altitude Azimuth Distance (km) Brightness Sun altitude
Rises 19:46:39 0° 347° (NNW) 3,439 8.3 -22.0°
Reaches altitude 10° 19:49:14 10° 354° (N) 2,494 7.1 -22.1°
Maximum altitude 19:54:36 42° 65° (ENE) 1,193 4.4 -22.4°
Enters shadow 19:56:12 34° 105° (ESE) 1,360 4.4 -22.5°
